Location: Orange Harbor Mobile Home Park
(26.6923°N, 81.7937°W)
Time: 23:05:29
(UTC+00:00)

Cosmos 1980 Rocket - Pass Details

Date: 19 September 2020
Orbit: 831 x 848 km, 71.0° (Epoch: 25 October)

Event Time Altitude Azimuth Distance (km) Brightness Sun altitude
Exits shadow 09:22:51 18° 332° (NNW) 1,934 3.9 -25.5°
Drops below altitude 10° 09:24:55 10° 349° (N) 2,465 4.7 -25.0°
Sets 09:27:49 0° 3° (N) 3,400 5.6 -24.4°
